Savannah Hunter, GA

5:28 AM EDT on April 28, 2017 (GMT -0400)
Hunter Army Air Field

Weather History for KSVN - November, 2013

Change the Weather History Date:

Friday, November 8, 2013

  Actual Average Record
Temperature  
Mean Temperature 55 °F -  
Max Temperature 64 °F 69 °F 82 °F (2000)
Min Temperature 46 °F 49 °F 31 °F (2010)
Degree Days  
Heating Degree Days 10    
Growing Degree Days 5 (Base 50)    
Moisture  
Dew Point 36 °F    
Average Humidity 50    
Maximum Humidity 74    
Minimum Humidity 29    
Precipitation  
Precipitation 0.00 in - - ()
Sea Level Pressure  
Sea Level Pressure 30.21 in    
Wind  
Wind Speed 9 mph (NNE)    
Max Wind Speed 15 mph    
Max Gust Speed 26 mph    
Visibility 10 miles    
Events      
Averages and records for this station are not official NWS values.
T = Trace of Precipitation, MM = Missing Value Source: NWS Daily Summary

Daily Weather History Graph

Daily Weather History Graph

Search for Another Location

Airport or City:

Trip Planner

Search our weather history database for the weather conditions in past years. The results will help you decide how hot, cold, wet, or windy it might be!

Date:

Astronomy

Nov. 08, 2013 Rise Set
Actual Time 6:47 AM EST 5:28 PM EST
Civil Twilight 6:21 AM EST 5:54 PM EST
Nautical Twilight 5:52 AM EST 6:23 PM EST
Astronomical Twilight 5:23 AM EST 6:52 PM EST
Moon 11:41 AM EST (11/8) 10:47 PM EST (11/8)
Length of Visible Light 11h 32m
Length of Day
10h 41m
Waxing Crescent, 33% of the Moon is Illuminated
Nov 8
Waxing Crescent
Nov 10
First Quarter
Nov 17
Full
Nov 25
Last Quarter
Dec 2
New

Hourly Weather History & Observations

Time (EST) Temp. Dew Point Humidity Pressure Visibility Wind Dir Wind Speed Gust Speed Precip Events Conditions
12:58 AM 58.1 °F 46.4 °F 65% 30.07 in 10.0 mi NNW 9.2 mph - N/A   Clear
1:58 AM 56.8 °F 44.1 °F 62% 30.09 in 10.0 mi North 10.4 mph - N/A   Clear
2:58 AM 56.3 °F 39.9 °F 54% 30.11 in 10.0 mi North 12.7 mph - N/A   Clear
3:58 AM 54.5 °F 39.2 °F 56% 30.12 in 10.0 mi North 11.5 mph - N/A   Clear
4:58 AM 52.9 °F 37.8 °F 56% 30.15 in 10.0 mi North 12.7 mph - N/A   Mostly Cloudy
5:58 AM 51.4 °F 37.2 °F 58% 30.18 in 10.0 mi North 11.5 mph - N/A   Mostly Cloudy
6:58 AM 49.6 °F 36.5 °F 61% 30.20 in 10.0 mi North 8.1 mph - N/A   Clear
7:58 AM 51.6 °F 35.4 °F 54% 30.23 in 10.0 mi NNE 15.0 mph 24.2 mph N/A   Partly Cloudy
8:58 AM 54.1 °F 33.4 °F 46% 30.25 in 10.0 mi NNE 15.0 mph 26.5 mph N/A   Clear
9:58 AM 56.8 °F 34.0 °F 42% 30.27 in 10.0 mi NNE 11.5 mph 20.7 mph N/A   Clear
10:58 AM 59.0 °F 32.9 °F 37% 30.27 in 10.0 mi NNE 11.5 mph 19.6 mph N/A   Clear
11:58 AM 61.5 °F 32.4 °F 33% 30.25 in 10.0 mi NNE 12.7 mph - N/A   Clear
12:58 PM 63.0 °F 31.3 °F 30% 30.23 in 10.0 mi North 10.4 mph - N/A   Clear
1:58 PM 64.6 °F 33.1 °F 31% 30.22 in 10.0 mi North 11.5 mph - N/A   Clear
2:58 PM 64.4 °F 31.6 °F 29% 30.21 in 10.0 mi North 10.4 mph - N/A   Clear
3:58 PM 63.5 °F 32.7 °F 32% 30.21 in 10.0 mi North 6.9 mph - N/A   Clear
4:58 PM 61.2 °F 32.7 °F 34% 30.22 in 10.0 mi NE 5.8 mph - N/A   Clear
5:58 PM 57.7 °F 34.3 °F 41% 30.23 in 10.0 mi NE 2.3 mph - N/A   Clear
6:58 PM 50.9 °F 37.8 °F 61% 30.25 in 10.0 mi Calm Calm - N/A   Clear
7:58 PM 53.2 °F 35.8 °F 52% 30.26 in 10.0 mi NE 3.5 mph - N/A   Clear
8:58 PM 49.1 °F 37.9 °F 65% 30.28 in 10.0 mi NNE 1.2 mph - N/A   Clear
9:58 PM 46.0 °F 38.1 °F 74% 30.28 in 10.0 mi NNE 1.2 mph - N/A   Clear
10:58 PM 49.8 °F 38.1 °F 64% 30.28 in 10.0 mi NE 4.6 mph - N/A   Clear
11:58 PM 50.4 °F 37.6 °F 62% 30.27 in 10.0 mi NE 2.3 mph - N/A   Clear